Location: Days
(41.3591°N, 106.7339°W)
Time: 14:59:41
(UTC+00:00)

O/OREOS (USA 219) - Pass Details

Date: 29 June 2022
Orbit: 621 x 646 km, 72.0° (Epoch: 22 May)

Event Time Altitude Azimuth Distance (km) Brightness Sun altitude
Rises 08:09:34 0° 337° (NNW) 2,962 ? -24.0°
Reaches altitude 10° 08:11:51 10° 337° (NNW) 2,050 ? -23.9°
Maximum altitude 08:16:28 85° 251° (WSW) 654 ? -23.6°
Enters shadow 08:16:42 80° 189° (S) 660 ? -23.6°
